Temp
82 81 80 77 64 61 55 60 68 66 67 71 74 71 65 66 65 57 70 74 76 75 77 81 82 82 82 82 82 82 83 83 83 83 83 83 84 83 83 84 84 83 84 84 83 83 83 83 83
80 82 77 69 61 52 55 66 64 68 71 74 74 72 68 64 71 68 70 76 78 76 75 78 81 82 82 82 82 83 83 83 83 83 83 83 84 84 84 84 83 83 83 84 83 83 83 83 83
82 84 71 63 57 53 55 66 67 72 75 75 71 74 70 65 71 71 74 77 77 75 76 78 82 82 83 83 83 83 83 83 83 83 83 84 84 84 84 84 83 83 83 83 83 83 82 82 83
80 76 72 61 58 63 65 68 71 71 75 74 73 66 73 77 74 75 78 77 75 75 78 81 83 83 83 83 83 83 83 83 83 83 84 84 84 84 84 84 84 83 83 83 83 83 83 82 83
76 69 61 60 61 68 70 73 73 70 71 72 73 66 68 75 77 77 76 77 74 75 78 80 82 83 83 83 83 84 84 84 83 83 84 84 84 84 84 84 84 83 83 83 83 83 83 83 83
68 66 60 56 60 67 71 74 73 71 70 70 69 67 66 75 75 76 77 75 77 76 77 79 82 83 83 84 84 83 84 84 83 83 84 84 84 84 84 84 84 84 84 84 84 84 83 83 82
68 62 59 59 61 64 69 75 69 69 69 69 73 64 69 71 76 77 76 76 76 77 76 77 78 82 84 84 84 84 84 83 83 83 83 83 83 84 83 84 84 84 84 84 84 84 83 82 82
72 66 59 60 61 62 73 73 74 71 71 78 76 64 65 71 77 76 76 74 75 75 76 75 76 77 78 79 84 84 84 84 83 83 83 83 84 84 84 83 82 84 84 84 84 83 83 82 82
77 62 59 63 64 66 74 70 77 78 73 77 77 73 75 76 77 74 72 73 74 75 75 75 75 76 76 76 81 83 84 84 84 82 84 82 77 79 80 81 82 83 84 84 84 83 83 83 82
70 62 67 72 72 68 73 73 73 71 72 71 71 75 76 76 73 71 71 71 73 73 74 75 75 75 76 80 77 77 78 78 77 78 77 76 76 76 77 80 82 83 84 84 83 83 83 80 79
71 68 74 75 76 77 74 73 76 71 66 70 67 70 73 73 72 71 72 72 73 74 75 75 75 75 75 76 76 75 75 75 76 76 76 76 76 75 75 75 75 76 80 78 79 77 79 78 76
70 77 78 77 78 74 72 75 71 72 71 77 75 74 73 72 71 71 72 72 72 73 74 75 75 75 75 75 75 75 75 75 75 75 75 74 74 73 73 74 75 75 75 76 76 75 76 76 76
72 75 78 79 75 76 77 72 71 73 76 78 76 75 73 73 73 75 75 75 74 72 74 74 75 75 75 74 75 75 75 75 75 75 75 75 74 72 72 74 75 74 74 75 74 74 74 74 75
77 75 75 75 74 75 72 72 73 73 77 75 74 73 74 74 74 75 75 73 73 75 75 75 75 75 75 74 74 74 75 75 75 75 75 75 75 72 72 73 73 73 74 74 74 74 73 73 74
78 70 74 73 72 71 77 68 69 75 76 73 73 73 74 75 76 75 76 74 75 76 76 75 76 76 74 75 75 73 74 75 74 74 75 74 75 73 73 72 72 73 74 74 73 73 73 73 74
69 68 63 68 73 73 72 61 69 75 73 71 73 74 74 74 75 77 78 77 76 76 75 76 80 77 74 74 74 75 74 73 73 75 75 74 75 74 73 72 71 73 73 73 73 72 72 72 71
64 58 60 65 73 72 67 61 70 75 73 70 72 73 74 74 76 77 78 78 77 76 76 75 76 76 74 74 74 74 75 74 75 75 75 75 75 75 74 72 72 73 72 71 71 71 71 70 71
58 58 59 62 70 71 65 62 69 73 72 71 72 73 73 73 75 77 78 79 78 77 76 76 76 75 74 73 73 74 74 74 75 74 73 75 74 76 73 73 72 72 71 71 70 70 70 70 70
67 65 65 67 72 66 63 63 67 71 72 71 71 72 73 74 78 79 79 79 77 77 74 74 73 73 74 72 71 72 72 73 73 74 75 75 74 75 73 72 72 71 71 71 71 70 69 69 69
68 64 64 68 71 69 62 63 68 70 71 72 72 72 73 75 73 75 76 77 76 75 74 73 74 73 73 72 72 73 73 73 73 74 74 75 75 74 74 73 72 72 71 70 70 69 68 68 69
63 63 62 68 68 67 65 59 62 68 71 73 74 75 75 75 73 73 75 75 76 74 73 73 73 73 73 73 72 72 72 71 71 72 73 73 74 74 73 72 71 70 70 69 69 69 68 67 68
58 70 71 67 66 55 65 51 57 65 67 70 73 74 75 75 77 75 75 75 76 75 76 74 74 72 73 73 72 72 70 69 69 70 71 72 73 72 72 71 70 69 69 68 68 69 68 67 66
68 72 69 67 61 57 57 54 58 64 61 68 72 75 76 77 77 76 76 77 78 78 76 75 72 72 73 73 73 72 69 69 68 68 69 69 69 70 71 70 70 69 69 68 69 68 68 67 66
74 68 62 56 54 48 57 58 55 56 66 71 74 76 77 78 78 78 78 78 77 78 77 75 72 72 72 73 72 72 70 67 66 66 67 67 67 68 69 70 70 69 68 68 69 69 68 67 67
66 58 48 46 46 46 55 53 64 66 72 75 75 76 78 79 77 77 76 76 75 75 75 75 73 72 72 73 72 72 70 67 67 66 67 65 66 67 67 68 68 68 68 68 68 68 68 67 66
62 60 49 44 43 50 53 51 62 77 76 77 77 78 78 78 77 77 77 77 77 76 75 75 73 73 72 73 72 71 69 68 67 67 66 66 67 68 68 68 68 68 68 69 68 68 68 67 67
59 55 61 50 43 47 50 58 69 72 72 72 74 73 75 77 77 78 78 78 78 77 76 75 73 73 72 73 71 68 67 66 66 66 66 66 66 68 68 68 68 68 68 69 68 68 68 67 67
67 65 56 48 43 40 48 51 57 63 68 70 69 72 75 77 77 78 78 78 78 79 78 77 76 74 74 73 72 69 68 67 67 66 66 65 66 68 68 68 68 68 68 68 67 67 68 67 67
59 56 53 53 48 45 44 49 61 67 69 70 71 75 76 77 77 77 78 79 79 80 79 77 76 75 74 73 71 71 68 69 67 67 67 67 66 67 67 67 67 67 67 68 66 66 67 66 66
66 61 59 55 47 46 48 53 68 70 69 69 72 75 75 76 77 77 78 78 78 78 79 78 77 77 76 74 70 70 69 68 68 67 67 67 67 66 67 67 67 67 68 67 67 67 68 67 66
MSLP
1007.56 1007.58 1007.80 1007.81 1008.75 1009.24 1010.09 1010.18 1009.90 1010.19 1010.21 1010.41 1010.43 1010.91 1011.88 1012.62 1013.08 1014.52 1014.58 1014.57 1014.75 1015.21 1015.11 1014.97 1015.04 1015.26 1015.46 1015.63 1015.81 1016.11 1016.49 1016.68 1016.75 1016.90 1017.25 1017.39 1017.45 1017.60 1017.78 1017.93 1017.98 1018.02 1018.06 1018.29 1018.24 1018.11 1018.28 1018.36 1018.38
1007.60 1007.89 1007.98 1008.31 1009.20 1009.82 1009.88 1009.85 1010.04 1010.03 1010.26 1010.45 1010.75 1011.40 1012.01 1013.07 1013.40 1014.06 1014.50 1014.66 1014.68 1014.94 1015.19 1015.13 1015.25 1015.45 1015.64 1015.90 1015.95 1016.12 1016.45 1016.69 1016.97 1017.15 1017.50 1017.54 1017.73 1017.85 1018.05 1018.18 1018.18 1018.31 1018.36 1018.40 1018.35 1018.48 1018.58 1018.67 1018.62
1007.57 1007.58 1008.19 1008.83 1009.63 1010.07 1009.82 1009.87 1009.84 1010.06 1010.30 1010.38 1011.12 1011.57 1012.37 1013.46 1013.77 1013.98 1014.17 1014.60 1014.78 1015.10 1015.20 1015.35 1015.52 1015.70 1015.81 1016.14 1016.15 1016.39 1016.66 1016.99 1017.24 1017.45 1017.66 1017.85 1018.04 1018.18 1018.27 1018.42 1018.46 1018.52 1018.55 1018.48 1018.54 1018.73 1018.83 1018.78 1018.82
1007.77 1007.97 1008.47 1008.91 1009.71 1009.41 1009.31 1009.66 1009.90 1010.12 1010.46 1010.75 1011.31 1012.20 1012.78 1012.99 1013.58 1013.76 1014.36 1014.54 1015.05 1015.15 1015.32 1015.39 1015.67 1015.89 1016.14 1016.40 1016.55 1016.77 1017.03 1017.30 1017.56 1017.76 1018.05 1018.22 1018.37 1018.41 1018.55 1018.65 1018.70 1018.75 1018.68 1018.74 1018.81 1018.88 1018.95 1018.96 1018.94
1008.03 1008.62 1008.93 1009.31 1009.48 1009.32 1009.19 1009.33 1009.67 1010.10 1010.73 1011.27 1011.48 1012.82 1013.32 1013.77 1013.70 1014.06 1014.60 1014.94 1015.16 1015.34 1015.46 1015.63 1015.89 1016.13 1016.35 1016.63 1016.91 1017.13 1017.34 1017.57 1017.83 1018.13 1018.30 1018.44 1018.50 1018.58 1018.71 1018.75 1018.83 1018.83 1018.87 1018.91 1018.94 1018.92 1018.94 1019.01 1018.95
1008.51 1009.08 1009.36 1009.83 1009.62 1009.43 1009.32 1009.40 1009.84 1010.18 1010.90 1011.61 1012.14 1012.86 1013.89 1013.99 1014.14 1014.52 1014.91 1015.18 1015.25 1015.60 1015.74 1015.90 1016.08 1016.33 1016.59 1016.82 1017.06 1017.16 1017.45 1017.75 1017.96 1018.22 1018.43 1018.53 1018.58 1018.68 1018.70 1018.75 1018.88 1018.88 1018.91 1018.97 1018.99 1018.97 1018.95 1018.98 1018.96
1008.16 1008.99 1009.60 1009.78 1009.91 1009.60 1009.43 1009.45 1009.97 1010.50 1010.91 1011.46 1011.83 1012.93 1013.97 1014.24 1014.32 1014.70 1015.09 1015.39 1015.49 1015.75 1016.00 1016.11 1016.27 1016.47 1016.65 1016.89 1017.07 1017.32 1017.60 1017.94 1018.22 1018.41 1018.55 1018.65 1018.73 1018.73 1018.80 1018.85 1018.92 1018.92 1018.87 1018.92 1018.93 1018.86 1018.94 1019.01 1018.91
1007.55 1008.53 1009.26 1009.40 1009.69 1009.55 1009.22 1009.53 1009.89 1010.36 1010.95 1011.31 1011.79 1012.66 1013.54 1013.87 1014.27 1014.81 1015.31 1015.65 1015.94 1016.03 1016.08 1016.32 1016.50 1016.62 1016.88 1017.08 1017.34 1017.56 1017.84 1018.13 1018.34 1018.42 1018.59 1018.66 1018.71 1018.80 1018.93 1018.91 1019.04 1018.98 1018.90 1018.89 1018.96 1018.78 1018.94 1018.87 1018.85
1006.97 1008.19 1008.87 1008.76 1009.20 1008.96 1009.15 1009.69 1010.04 1010.19 1010.91 1011.11 1011.47 1011.87 1012.37 1013.52 1014.29 1015.01 1015.59 1015.99 1016.16 1016.34 1016.47 1016.49 1016.75 1016.92 1017.10 1017.35 1017.46 1017.64 1017.92 1018.21 1018.44 1018.48 1018.52 1018.72 1018.93 1018.97 1019.09 1019.09 1019.03 1018.95 1018.90 1018.91 1018.90 1018.88 1018.90 1018.82 1018.83
1006.68 1007.27 1007.30 1007.26 1007.52 1008.10 1008.85 1009.53 1010.09 1010.50 1010.89 1011.23 1011.64 1012.10 1012.87 1013.69 1014.43 1015.02 1015.53 1015.87 1016.19 1016.42 1016.51 1016.65 1016.79 1017.04 1017.24 1017.31 1017.60 1017.85 1018.07 1018.24 1018.40 1018.47 1018.49 1018.77 1018.91 1019.04 1019.08 1019.07 1018.98 1018.84 1018.84 1018.72 1018.77 1018.84 1018.80 1018.87 1019.05
1005.89 1006.10 1006.33 1006.59 1006.84 1007.25 1008.64 1009.56 1009.96 1010.37 1010.99 1010.81 1011.34 1012.07 1012.97 1013.87 1014.57 1015.05 1015.45 1015.57 1015.76 1016.12 1016.48 1016.69 1016.73 1017.01 1017.25 1017.40 1017.62 1017.96 1018.12 1018.29 1018.44 1018.51 1018.64 1018.80 1019.04 1019.14 1019.15 1019.19 1019.17 1019.07 1018.90 1018.96 1018.90 1018.99 1018.98 1019.02 1019.03
1005.48 1005.14 1005.85 1006.06 1006.53 1007.37 1008.30 1009.19 1009.79 1010.14 1010.21 1010.26 1011.25 1012.00 1012.85 1013.61 1014.29 1014.74 1015.20 1015.59 1015.92 1016.12 1016.30 1016.48 1016.56 1016.82 1017.08 1017.35 1017.62 1017.86 1018.11 1018.23 1018.40 1018.47 1018.69 1018.91 1018.98 1019.07 1019.17 1019.14 1019.09 1019.10 1019.12 1019.10 1019.15 1019.16 1019.18 1019.11 1019.10
1005.17 1004.93 1005.43 1005.56 1006.34 1007.04 1008.02 1008.86 1009.51 1009.90 1009.97 1010.40 1011.41 1012.33 1013.02 1013.61 1013.99 1014.43 1014.79 1015.28 1015.66 1016.00 1016.18 1016.30 1016.49 1016.79 1017.02 1017.36 1017.57 1017.78 1017.92 1018.03 1018.14 1018.31 1018.45 1018.67 1018.83 1018.83 1019.04 1018.95 1019.05 1019.08 1019.13 1019.06 1019.16 1019.26 1019.31 1019.24 1019.11
1004.52 1004.84 1005.50 1006.06 1006.69 1007.49 1008.07 1009.10 1009.36 1010.16 1010.22 1010.99 1011.65 1012.37 1012.90 1013.30 1013.68 1014.14 1014.67 1015.12 1015.43 1015.70 1015.95 1016.14 1016.37 1016.49 1016.83 1017.13 1017.34 1017.50 1017.65 1017.69 1017.87 1017.98 1018.06 1018.28 1018.42 1018.63 1018.82 1018.96 1018.96 1019.02 1019.05 1019.03 1019.10 1019.20 1019.20 1019.14 1019.13
1004.76 1005.87 1005.88 1006.66 1006.98 1007.79 1008.15 1009.37 1009.42 1009.71 1010.20 1011.15 1011.82 1012.39 1012.90 1013.20 1013.64 1013.76 1013.96 1014.42 1014.73 1014.98 1015.32 1015.72 1015.96 1016.16 1016.61 1016.93 1017.04 1017.25 1017.25 1017.50 1017.57 1017.57 1017.67 1018.04 1018.07 1018.22 1018.45 1018.85 1018.86 1018.87 1018.94 1019.02 1019.04 1019.13 1019.15 1019.09 1018.98
1005.26 1005.71 1006.78 1007.24 1007.24 1007.84 1008.10 1008.84 1009.37 1009.76 1010.35 1011.12 1011.86 1012.27 1012.61 1012.87 1013.16 1013.51 1013.74 1014.03 1014.39 1014.74 1015.09 1015.37 1015.72 1016.07 1016.41 1016.65 1016.71 1016.85 1017.04 1017.18 1017.35 1017.30 1017.50 1017.67 1017.74 1017.85 1018.19 1018.40 1018.64 1018.72 1018.81 1018.83 1018.89 1019.06 1019.07 1018.96 1018.97
1006.00 1006.38 1006.97 1007.44 1007.27 1007.63 1008.51 1009.16 1009.26 1009.79 1010.24 1010.84 1011.40 1011.92 1012.22 1012.64 1012.88 1012.99 1013.22 1013.62 1014.04 1014.37 1014.75 1015.15 1015.45 1015.69 1016.04 1016.30 1016.44 1016.63 1016.85 1017.06 1017.15 1017.25 1017.31 1017.41 1017.58 1017.75 1018.02 1018.24 1018.44 1018.56 1018.69 1018.82 1018.91 1019.02 1019.07 1019.06 1018.96
1006.13 1006.55 1006.80 1006.96 1007.08 1007.54 1008.42 1009.01 1009.33 1009.74 1010.11 1010.40 1010.82 1011.23 1011.58 1011.87 1011.95 1012.30 1012.72 1013.13 1013.55 1014.02 1014.49 1014.80 1015.18 1015.48 1015.72 1016.13 1016.47 1016.68 1016.91 1016.88 1016.96 1017.09 1017.29 1017.32 1017.44 1017.53 1017.74 1018.04 1018.30 1018.38 1018.70 1018.90 1018.91 1019.10 1019.19 1019.25 1019.12
1005.31 1005.91 1006.06 1006.67 1007.07 1007.83 1008.36 1009.05 1009.20 1009.67 1009.99 1010.18 1010.36 1010.58 1010.83 1011.01 1010.98 1011.73 1012.23 1012.71 1013.16 1013.64 1014.26 1014.62 1015.05 1015.25 1015.66 1016.18 1016.61 1016.91 1017.00 1016.99 1016.97 1016.90 1016.95 1017.08 1017.29 1017.41 1017.62 1017.92 1018.14 1018.34 1018.62 1018.77 1018.91 1019.09 1019.24 1019.18 1019.20
1005.18 1005.81 1006.23 1006.79 1007.11 1008.23 1009.01 1009.24 1009.44 1009.57 1008.99 1009.52 1009.88 1010.10 1010.30 1010.50 1010.91 1011.30 1011.84 1012.38 1012.73 1013.01 1013.52 1014.20 1014.54 1014.83 1015.22 1015.67 1016.07 1016.39 1016.66 1016.77 1016.72 1016.66 1016.71 1016.77 1016.98 1017.18 1017.38 1017.72 1018.09 1018.25 1018.63 1018.86 1018.96 1018.99 1019.17 1019.23 1019.18
1005.02 1005.29 1006.07 1006.43 1007.45 1008.18 1009.04 1009.70 1009.61 1009.52 1009.53 1009.59 1009.50 1009.52 1009.80 1010.03 1010.48 1010.77 1011.24 1011.70 1012.17 1012.73 1013.05 1013.48 1013.82 1014.16 1014.73 1015.22 1015.81 1016.32 1016.52 1016.69 1016.80 1016.78 1016.73 1016.65 1016.80 1017.04 1017.30 1017.60 1017.87 1018.15 1018.53 1018.77 1018.90 1019.05 1019.20 1019.28 1019.25
1004.66 1004.52 1005.25 1006.67 1007.45 1008.27 1008.43 1009.54 1009.19 1008.79 1008.73 1008.62 1008.47 1008.65 1008.81 1009.17 1009.66 1010.09 1010.44 1011.00 1011.54 1011.88 1012.35 1012.79 1013.18 1013.64 1014.20 1014.77 1015.32 1015.68 1016.13 1016.57 1016.52 1016.46 1016.47 1016.52 1016.60 1016.89 1017.18 1017.47 1017.81 1018.12 1018.37 1018.68 1018.84 1018.98 1019.20 1019.32 1019.44
1003.66 1004.00 1005.19 1006.40 1007.62 1008.39 1008.98 1009.31 1007.89 1008.20 1008.37 1007.21 1006.97 1007.28 1007.59 1007.93 1008.45 1009.11 1009.62 1010.03 1010.41 1011.10 1011.79 1012.25 1012.74 1013.22 1013.71 1014.30 1014.71 1015.25 1015.83 1016.17 1016.43 1016.56 1016.63 1016.69 1016.83 1016.92 1017.11 1017.37 1017.61 1017.94 1018.19 1018.52 1018.69 1018.87 1019.04 1019.25 1019.50
1003.20 1004.56 1006.28 1007.70 1008.49 1009.12 1008.27 1008.55 1007.59 1007.49 1005.66 1004.76 1005.56 1005.94 1006.34 1006.99 1007.58 1008.17 1008.74 1009.45 1010.01 1010.70 1011.29 1011.73 1012.23 1012.62 1013.18 1013.73 1014.15 1014.60 1015.23 1015.86 1016.40 1016.64 1016.75 1016.83 1017.00 1017.14 1017.11 1017.25 1017.50 1017.72 1018.01 1018.29 1018.46 1018.69 1018.92 1019.15 1019.30
1003.29 1004.97 1006.92 1008.69 1009.31 1009.13 1007.68 1008.22 1005.92 1004.38 1003.63 1003.12 1003.39 1004.04 1004.78 1005.58 1006.59 1007.28 1008.02 1008.63 1009.26 1010.00 1010.52 1011.03 1011.47 1011.91 1012.33 1012.87 1013.36 1013.87 1014.51 1015.27 1015.63 1016.04 1016.29 1016.72 1016.96 1017.02 1017.05 1017.14 1017.44 1017.70 1017.77 1018.03 1018.21 1018.48 1018.69 1018.85 1019.01
1003.39 1004.35 1006.29 1007.80 1008.87 1008.66 1007.89 1006.84 1004.41 1002.44 1002.26 1002.56 1002.88 1003.18 1004.20 1004.82 1005.40 1006.06 1006.67 1007.44 1008.29 1009.03 1009.72 1010.37 1010.82 1011.16 1011.55 1012.17 1012.77 1013.35 1013.97 1014.69 1015.08 1015.47 1015.91 1016.04 1016.31 1016.38 1016.57 1016.96 1017.19 1017.41 1017.56 1017.66 1017.78 1018.11 1018.37 1018.53 1018.62
1003.06 1004.12 1004.83 1006.74 1008.46 1008.52 1007.50 1005.60 1003.43 1002.20 1002.15 1002.17 1002.13 1002.85 1003.09 1003.58 1004.16 1004.89 1005.82 1006.44 1007.12 1007.95 1008.41 1009.04 1009.91 1010.48 1010.89 1011.45 1012.03 1012.69 1013.38 1014.06 1014.56 1014.92 1015.37 1015.64 1015.96 1016.29 1016.55 1016.64 1016.97 1017.11 1017.31 1017.45 1017.68 1017.94 1018.05 1018.17 1018.30
1001.46 1002.93 1004.94 1006.55 1007.93 1008.34 1007.10 1005.57 1003.53 1002.56 1001.77 1001.56 1001.88 1001.90 1002.06 1002.62 1003.55 1004.12 1004.76 1005.38 1005.97 1006.40 1007.14 1008.24 1008.99 1009.38 1009.94 1010.69 1011.30 1012.00 1012.65 1013.15 1013.72 1014.40 1015.03 1015.17 1015.46 1015.94 1016.32 1016.52 1016.80 1017.00 1017.18 1017.17 1017.43 1017.66 1017.76 1017.88 1018.00
1001.95 1002.81 1004.44 1005.44 1006.60 1007.19 1006.75 1004.97 1002.40 1001.65 1001.18 1001.00 1000.72 1000.64 1001.00 1001.71 1002.36 1003.01 1003.54 1004.14 1004.69 1005.22 1006.55 1007.38 1008.03 1008.58 1009.14 1009.65 1010.48 1011.21 1011.95 1012.64 1013.23 1013.71 1014.18 1014.64 1015.07 1015.49 1015.95 1016.25 1016.64 1016.90 1017.03 1016.98 1017.14 1017.33 1017.46 1017.60 1017.60
1000.43 1001.69 1003.02 1004.72 1006.32 1006.41 1005.42 1003.28 1000.97 1000.28 1000.53 1000.47 1000.11 1000.17 1000.60 1001.06 1001.51 1002.09 1002.76 1003.52 1004.32 1005.04 1005.75 1006.20 1006.78 1007.61 1007.90 1008.70 1009.84 1010.49 1011.27 1012.11 1012.72 1013.22 1013.63 1014.11 1014.34 1014.66 1015.12 1015.83 1016.21 1016.42 1016.70 1016.81 1016.88 1016.89 1016.92 1017.06 1017.09
Wind_Speed
7 4 2 1 4 5 2 2 3 3 2 2 3 6 9 8 3 5 2 6 9 5 6 11 13 13 14 15 16 16 15 16 15 14 12 12 12 11 9 9 9 8 7 6 7 8 7 5 5
4 4 2 2 5 4 4 4 7 3 5 9 8 7 6 6 4 8 5 5 8 7 6 7 13 15 16 17 16 17 16 16 14 14 12 12 11 11 9 8 8 7 5 5 6 5 4 3 3
5 1 3 4 4 2 1 3 9 11 10 4 5 4 4 3 6 6 7 9 8 6 6 8 15 14 17 16 17 16 16 14 13 13 12 11 10 9 7 6 6 5 4 4 3 3 3 3 3
1 4 3 5 3 1 1 7 12 9 5 6 9 7 5 7 4 6 11 9 8 6 6 12 16 16 15 15 15 15 14 13 11 10 10 9 8 8 6 5 4 3 3 2 2 3 3 3 4
3 2 3 4 3 3 3 7 7 5 5 6 3 5 7 3 11 13 10 9 7 5 6 9 14 14 15 14 14 13 12 11 9 9 9 9 8 7 5 3 2 1 1 2 2 4 5 5 4
3 3 5 2 1 3 4 5 4 4 8 8 9 7 3 9 12 10 9 8 6 5 5 6 13 14 14 14 13 13 12 11 10 10 9 8 7 6 4 3 2 2 3 3 4 6 6 6 5
4 4 3 3 2 2 2 4 4 4 7 7 10 5 7 7 9 10 8 6 5 5 5 5 5 10 14 12 13 12 11 11 10 10 9 8 6 5 4 5 4 4 5 5 5 6 5 5 5
4 5 2 2 5 4 5 3 6 5 3 8 10 7 9 9 12 10 8 6 5 5 4 5 4 4 5 4 11 10 9 9 9 8 8 7 7 6 6 5 5 6 6 8 7 6 5 3 3
3 4 3 7 8 5 6 4 3 5 10 3 5 5 10 16 14 11 9 6 5 5 4 4 4 4 4 4 6 9 10 9 9 7 8 6 2 2 3 3 7 8 8 7 8 5 4 5 5
4 3 8 7 8 8 10 6 6 4 10 2 7 14 17 17 14 13 12 11 10 8 6 5 5 5 5 4 3 4 4 4 4 4 4 2 3 3 4 5 5 8 6 5 6 4 5 5 3
3 6 5 5 7 15 12 7 5 10 6 5 13 19 20 17 13 12 11 12 13 9 7 7 6 5 6 4 3 2 2 2 2 4 4 2 2 2 1 1 2 2 4 2 3 3 3 4 3
1 6 7 7 8 9 14 9 5 9 5 7 14 20 18 18 14 13 12 10 9 8 8 6 6 6 6 3 4 3 3 3 3 3 4 3 2 3 3 2 2 1 1 1 1 2 3 4 4
4 3 9 8 9 9 14 7 5 6 6 15 18 18 17 15 14 12 12 10 9 9 8 7 6 6 6 5 3 3 4 4 4 4 4 3 3 3 2 2 2 1 1 1 2 1 2 3 4
4 3 8 7 9 5 10 5 8 4 14 15 18 17 16 16 16 11 10 8 10 9 10 8 9 7 6 6 5 4 4 5 4 4 5 7 5 3 3 2 2 2 2 1 1 1 2 2 3
6 7 9 4 4 5 12 1 6 11 16 16 16 14 14 14 12 14 13 12 12 12 11 10 11 8 8 8 6 4 5 4 4 5 6 5 5 4 3 2 3 3 2 2 1 2 2 3 2
4 5 6 4 6 7 6 7 2 15 17 17 15 14 14 14 14 13 12 12 11 10 11 10 9 9 8 7 6 4 4 3 4 4 3 5 5 5 4 3 3 2 2 1 1 1 2 2 2
3 7 4 3 6 8 3 4 8 13 15 15 16 15 14 13 12 13 13 13 11 12 11 10 8 8 9 6 5 5 4 3 2 2 2 3 3 3 3 3 2 2 1 2 1 0 1 2 3
7 6 3 6 9 8 5 4 12 14 14 16 16 15 16 15 17 14 14 14 12 10 10 9 8 7 7 4 2 1 1 2 2 3 3 4 3 3 3 2 3 3 2 1 1 1 1 2 3
7 7 12 3 2 2 5 5 15 15 13 15 15 15 16 16 16 14 13 12 11 9 8 9 8 8 6 2 3 2 3 2 2 3 4 4 4 4 4 3 3 3 2 1 1 0 0 1 1
8 8 7 1 4 4 1 3 9 16 18 17 16 15 14 15 8 11 11 11 12 13 13 10 11 9 8 5 3 3 3 2 2 2 3 4 4 4 4 4 3 3 2 2 1 1 1 1 0
5 10 7 14 7 3 6 3 8 11 8 11 13 12 13 15 12 11 13 14 12 12 12 12 12 11 8 8 4 2 2 2 1 2 2 3 5 5 5 4 3 3 2 2 1 1 2 1 1
7 8 8 10 12 8 7 6 8 12 17 14 17 15 16 15 12 13 15 14 13 14 11 12 12 10 9 10 7 6 4 4 3 3 2 4 5 5 5 5 4 3 2 2 2 2 1 2 1
10 9 11 8 8 6 3 3 7 13 10 22 20 20 19 18 18 16 17 17 16 14 12 11 10 9 9 10 9 7 4 3 2 2 4 4 3 4 5 5 5 4 3 3 3 2 3 1 1
9 8 8 6 5 2 9 9 6 8 25 24 16 20 19 17 18 17 16 15 14 11 11 11 11 11 10 10 11 11 9 6 4 3 4 3 2 2 4 5 4 4 4 3 2 2 3 2 2
6 7 1 3 2 7 4 3 13 11 17 24 23 22 21 19 17 17 17 17 14 14 15 13 14 13 12 13 12 11 10 8 9 7 6 5 3 3 5 5 5 3 4 4 3 3 3 3 3
7 10 8 7 6 5 4 9 12 22 16 13 9 15 12 17 18 20 20 18 17 17 15 14 14 14 13 13 12 10 9 6 6 7 4 5 4 4 5 5 5 5 5 4 4 2 3 4 4
4 4 7 9 2 3 5 8 9 7 8 8 13 11 17 19 20 21 19 19 19 18 19 19 15 14 13 14 11 11 9 9 8 8 6 4 4 4 5 6 6 5 4 5 4 3 3 4 4
10 9 4 3 6 5 5 4 7 5 12 9 8 16 18 18 17 18 19 20 19 20 19 17 16 17 13 14 12 11 11 11 9 8 8 7 7 5 6 5 5 5 5 5 4 3 2 2 3
3 3 6 6 5 8 4 8 10 11 11 12 14 18 18 18 18 19 19 19 21 19 16 16 16 16 15 15 13 12 11 11 9 10 9 8 7 7 6 6 6 5 6 5 4 4 4 4 4
11 12 9 7 6 2 5 9 5 12 6 9 14 15 12 13 17 18 18 18 17 17 17 18 17 16 17 14 13 14 12 11 11 10 10 9 9 7 8 7 6 6 6 5 5 5 4 5 5
Wind_Direction
145 152 169 26 36 68 68 101 92 102 90 44 34 82 112 44 44 146 134 136 128 154 163 148 148 142 143 142 140 138 134 135 136 133 136 134 132 128 126 119 118 109 105 107 98 89 84 76 67
154 173 33 96 75 34 314 103 103 83 109 123 86 99 51 71 59 110 109 141 127 133 125 135 144 146 140 146 143 141 144 140 136 137 140 134 132 133 131 120 110 108 114 105 83 76 69 56 51
184 318 85 90 98 144 207 79 118 128 148 99 110 70 66 71 103 125 125 127 113 114 126 152 147 146 144 144 141 145 146 143 141 140 139 136 134 128 120 117 122 125 120 89 77 68 37 11 14
226 3 25 73 79 31 170 123 130 130 105 62 111 65 75 124 128 129 128 121 121 128 140 150 151 150 147 145 141 144 145 141 139 133 137 136 134 128 125 130 117 113 75 53 17 18 355 349 349
49 63 55 63 3 358 45 122 135 111 84 79 45 94 93 41 107 121 130 130 134 129 135 148 154 150 149 142 142 140 137 139 137 143 146 146 146 139 140 136 129 93 343 321 319 328 341 333 325
59 89 56 81 42 32 37 98 122 70 116 120 95 96 96 129 126 133 131 133 139 126 128 151 152 149 147 147 141 136 148 149 152 154 159 158 158 153 165 184 203 262 288 293 319 323 328 322 317
124 88 144 110 93 43 169 126 102 103 132 125 135 99 129 150 137 133 130 125 123 119 127 131 139 158 155 155 150 153 155 157 165 169 167 165 167 177 204 236 248 261 276 288 309 313 318 319 308
119 87 102 109 161 214 179 100 137 119 70 108 139 159 166 173 143 126 125 121 129 129 137 141 143 136 142 157 168 171 171 173 181 174 171 178 189 208 231 254 294 275 278 286 302 308 312 297 284
111 78 169 177 158 200 152 124 141 96 138 198 151 142 139 147 135 128 130 139 139 154 159 151 147 145 146 144 181 185 190 192 197 200 195 200 186 267 279 294 276 283 284 304 302 307 323 357 15
119 118 195 187 164 170 161 145 152 119 163 94 91 110 133 146 147 152 164 171 175 181 188 176 165 169 164 166 178 169 188 183 192 203 223 179 200 238 236 276 297 291 268 302 322 301 5 22 6
176 208 167 178 175 147 154 155 175 140 225 202 157 150 151 153 159 164 176 180 182 184 187 179 177 175 172 180 186 189 192 183 198 209 219 222 224 263 289 281 317 308 331 339 345 17 22 356 4
197 244 166 168 165 140 157 140 154 162 215 168 161 152 155 160 167 174 178 177 173 183 191 176 175 176 181 180 191 185 189 195 208 216 214 208 218 227 239 248 251 292 321 315 12 12 346 354 334
241 217 167 153 137 148 127 157 163 192 124 128 142 152 164 169 175 183 184 182 173 181 192 192 176 188 190 194 199 190 202 203 206 204 211 201 221 229 252 250 262 284 283 313 333 360 347 327 325
238 115 135 107 115 98 118 137 117 190 136 138 151 166 172 177 183 180 179 179 186 184 195 185 196 193 178 196 206 209 200 216 209 208 211 209 216 212 227 239 243 266 244 267 290 313 308 307 313
141 98 68 80 106 107 107 194 209 153 149 155 167 174 181 190 187 192 188 186 188 193 190 192 196 189 192 199 213 208 212 202 221 221 214 207 216 211 215 231 232 251 255 248 284 290 297 305 315
80 64 109 222 149 174 114 248 142 156 156 166 178 184 189 195 197 200 201 198 193 190 192 195 198 189 194 197 205 212 219 221 228 226 216 209 215 209 202 212 230 233 234 247 253 283 303 292 305
10 151 125 159 207 145 152 228 172 171 165 172 181 190 196 200 207 206 198 196 191 192 194 194 192 187 188 197 206 207 208 210 224 228 218 210 226 227 204 220 212 197 208 238 210 262 250 303 317
181 133 147 194 192 162 164 243 163 179 176 181 189 193 196 200 207 203 200 198 192 188 196 196 189 188 187 177 170 121 245 241 220 215 211 221 230 222 185 184 197 164 159 196 194 235 301 292 307
144 167 176 109 34 66 183 188 177 185 195 197 196 198 201 203 208 203 198 191 185 184 174 186 177 194 170 149 147 175 212 205 228 208 212 198 201 193 159 157 140 147 165 221 223 170 330 307 341
161 147 206 23 134 135 183 288 191 199 203 201 204 209 206 212 179 187 188 183 185 186 188 182 195 192 187 172 157 163 167 196 179 201 210 207 194 180 164 147 159 168 166 203 192 166 124 267 324
169 164 169 210 142 82 127 319 191 217 215 218 227 222 216 211 201 194 189 189 189 192 190 191 197 198 182 176 129 117 88 79 128 204 190 194 175 169 158 171 163 163 162 193 215 178 173 240 280
162 203 163 139 150 198 161 247 228 204 211 214 221 212 216 212 205 199 193 193 193 201 196 196 198 192 185 172 175 167 171 180 215 191 189 178 167 161 163 158 161 167 164 193 217 174 174 175 224
214 157 153 162 164 122 198 99 265 174 223 227 218 212 212 207 202 198 199 199 199 194 192 198 196 189 181 180 185 181 174 188 205 191 185 172 171 179 179 176 168 172 179 201 199 180 182 199 144
142 90 55 53 103 112 218 181 254 188 213 230 216 215 207 204 200 201 196 194 199 196 193 194 191 197 182 182 185 183 184 184 177 183 177 176 176 194 212 191 186 174 176 192 197 211 211 201 192
82 80 7 41 70 210 208 149 230 217 221 222 209 207 203 197 192 192 188 193 192 187 195 196 196 200 188 188 189 187 186 182 187 185 181 165 173 199 207 183 179 176 184 189 184 191 210 197 198
179 154 155 187 179 219 113 209 246 229 229 245 229 213 192 197 194 195 192 191 193 194 198 199 200 200 191 191 194 188 181 185 189 180 179 187 187 193 174 179 179 189 184 188 183 192 219 213 212
194 157 188 105 39 90 202 283 310 238 249 219 222 174 195 196 195 195 192 193 194 196 199 199 196 204 194 195 190 185 180 176 189 184 183 181 183 189 183 186 182 194 197 205 185 203 212 203 216
161 169 99 355 141 220 268 266 230 245 245 223 215 203 203 200 195 195 194 194 197 201 202 198 200 202 195 194 193 186 187 185 181 167 189 187 187 185 180 184 195 204 211 203 191 220 232 228 239
119 158 55 118 132 168 196 258 214 212 219 217 220 212 198 195 192 194 197 197 200 202 197 200 200 197 197 194 189 183 184 184 174 180 187 187 176 184 188 185 198 211 220 209 202 218 234 233 248
182 180 161 173 222 213 173 254 229 217 208 221 231 211 200 195 195 195 195 195 198 201 199 200 201 200 205 195 184 187 176 180 182 191 186 176 183 180 180 186 202 210 225 223 214 222 225 229 236